• In Slovakia
  • List of Countries
  • For 7 days
  • Water Temperature
  • Satellite Maps
  • Weather Map
  • Weather Widgets
  • user-avatar
    Login

    Hourly Weather Yashtreksola

    Today, 20 April, Friday

    Time Temperature Precipitation Wind Pressure Humidity
    00:00 +1°C° 0.4 mm 4 mps 738 mmHg 98%
    01:00 +1°C° 0.3 mm 4 mps 738 mmHg 97%
    02:00 +1°C° 0.3 mm 5 mps 738 mmHg 95%
    03:00 0°C° 0 mm 4 mps 739 mmHg 96%
    04:00 0°C° 0 mm 4 mps 739 mmHg 94%
    05:00 0°C° 0 mm 5 mps 740 mmHg 92%
    06:00 -1°C° 0 mm 5 mps 740 mmHg 90%
    07:00 0°C° 0 mm 5 mps 740 mmHg 84%
    08:00 +1°C° 0 mm 6 mps 741 mmHg 79%
    09:00 +1°C° 0 mm 6 mps 741 mmHg 73%
    10:00 +1°C° 0 mm 6 mps 741 mmHg 71%
    11:00 +1°C° 0 mm 6 mps 742 mmHg 69%
    12:00 +2°C° 0 mm 6 mps 742 mmHg 67%
    13:00 +1°C° 0 mm 6 mps 743 mmHg 66%
    14:00 +1°C° 0 mm 6 mps 743 mmHg 65%
    15:00 +2°C° 0 mm 5 mps 743 mmHg 63%
    16:00 +1°C° 0 mm 5 mps 743 mmHg 65%
    17:00 0°C° 0 mm 4 mps 743 mmHg 66%
    18:00 0°C° 0 mm 4 mps 744 mmHg 68%
    19:00 -1°C° 0 mm 4 mps 744 mmHg 71%
    20:00 -1°C° 0 mm 3 mps 744 mmHg 74%
    21:00 -2°C° 0 mm 3 mps 744 mmHg 77%
    22:00 -3°C° 0 mm 2 mps 744 mmHg 79%
    23:00 -3°C° 0 mm 2 mps 744 mmHg 81%

    Tomorrow, 21 April, Saturday

    Time Temperature Precipitation Wind Pressure Humidity
    00:00 -4°C° 0 mm 2 mps 744 mmHg 83%
    01:00 -4°C° 0 mm 2 mps 744 mmHg 84%
    02:00 -3°C° 0 mm 1 mps 744 mmHg 84%
    03:00 -3°C° 0 mm 1 mps 744 mmHg 84%
    04:00 -2°C° 0 mm 1 mps 744 mmHg 80%
    05:00 -2°C° 0 mm 1 mps 744 mmHg 77%
    06:00 -3°C° 0 mm 0 mps 744 mmHg 73%
    07:00 0°C° 0 mm 1 mps 743 mmHg 66%
    08:00 +1°C° 0 mm 1 mps 743 mmHg 59%
    09:00 +1°C° 0 mm 2 mps 742 mmHg 51%
    10:00 +2°C° 0 mm 2 mps 742 mmHg 50%
    11:00 +2°C° 0 mm 3 mps 741 mmHg 48%
    12:00 +3°C° 0 mm 4 mps 740 mmHg 47%
    13:00 +1°C° 0.2 mm 4 mps 739 mmHg 51%
    14:00 +1°C° 0.2 mm 5 mps 739 mmHg 56%
    15:00 +1°C° 0.2 mm 5 mps 738 mmHg 60%
    16:00 0°C° 0.3 mm 5 mps 737 mmHg 66%
    17:00 -1°C° 0.3 mm 6 mps 736 mmHg 71%
    18:00 -2°C° 0.3 mm 7 mps 735 mmHg 76%
    19:00 -2°C° 1.3 mm 7 mps 733 mmHg 79%
    20:00 -2°C° 1.3 mm 7 mps 732 mmHg 82%
    21:00 -2°C° 1.3 mm 8 mps 731 mmHg 86%
    22:00 -2°C° 1.3 mm 8 mps 729 mmHg 87%
    23:00 -1°C° 1.3 mm 8 mps 728 mmHg 89%

    Day after tomorrow, 22 April, Sunday

    Time Temperature Precipitation Wind Pressure Humidity
    00:00 -1°C° 1.3 mm 8 mps 727 mmHg 91%
    01:00 0°C° 1.1 mm 8 mps 725 mmHg 93%
    02:00 +2°C° 1.1 mm 7 mps 724 mmHg 95%
    03:00 +2°C° 1.1 mm 7 mps 723 mmHg 97%
    04:00 +3°C° 1.1 mm 7 mps 722 mmHg 97%
    05:00 +3°C° 1.1 mm 7 mps 722 mmHg 97%
    06:00 +4°C° 1.1 mm 6 mps 721 mmHg 97%
    07:00 +5°C° 0.3 mm 5 mps 721 mmHg 97%
    08:00 +5°C° 0.3 mm 4 mps 721 mmHg 97%
    09:00 +5°C° 0.3 mm 3 mps 721 mmHg 98%
    10:00 +7°C° 0.4 mm 3 mps 721 mmHg 95%
    11:00 +7°C° 0.4 mm 3 mps 722 mmHg 93%
    12:00 +7°C° 0.4 mm 3 mps 722 mmHg 90%
    13:00 +6°C° 0.5 mm 4 mps 722 mmHg 87%
    14:00 +7°C° 0.5 mm 4 mps 723 mmHg 83%
    15:00 +7°C° 0.5 mm 5 mps 723 mmHg 79%
    16:00 +6°C° 0.4 mm 4 mps 724 mmHg 83%
    17:00 +5°C° 0.4 mm 4 mps 724 mmHg 86%
    18:00 +4°C° 0.4 mm 4 mps 725 mmHg 90%
    19:00 +3°C° 0.4 mm 4 mps 725 mmHg 90%
    20:00 +1°C° 0.4 mm 5 mps 725 mmHg 91%
    21:00 0°C° 0.4 mm 5 mps 726 mmHg 92%
    22:00 -1°C° 0.4 mm 5 mps 726 mmHg 92%
    23:00 -1°C° 0.4 mm 5 mps 727 mmHg 92%

    23 April, Monday

    Time Temperature Precipitation Wind Pressure Humidity
    00:00 -1°C° 0.4 mm 5 mps 727 mmHg 92%
    01:00 -3°C° 0.2 mm 6 mps 727 mmHg 91%
    02:00 -3°C° 0.2 mm 6 mps 728 mmHg 91%
    03:00 -4°C° 0.2 mm 7 mps 728 mmHg 90%
    04:00 -4°C° 0.2 mm 7 mps 729 mmHg 90%
    05:00 -4°C° 0.2 mm 7 mps 730 mmHg 89%
    06:00 -6°C° 0.2 mm 7 mps 730 mmHg 88%
    07:00 -6°C° 0.1 mm 7 mps 731 mmHg 87%
    08:00 -4°C° 0.1 mm 7 mps 732 mmHg 85%
    09:00 -4°C° 0.1 mm 7 mps 732 mmHg 84%
    10:00 -4°C° 0.1 mm 6 mps 733 mmHg 83%
    11:00 -3°C° 0.1 mm 6 mps 734 mmHg 82%
    12:00 -3°C° 0.1 mm 6 mps 734 mmHg 81%
    13:00 -3°C° 0.1 mm 6 mps 735 mmHg 80%
    14:00 -3°C° 0.1 mm 6 mps 736 mmHg 80%
    15:00 -1°C° 0.1 mm 5 mps 736 mmHg 80%
    16:00 -2°C° 0.1 mm 5 mps 737 mmHg 81%
    17:00 -2°C° 0.1 mm 5 mps 737 mmHg 83%
    18:00 -2°C° 0.1 mm 5 mps 738 mmHg 84%
    19:00 -2°C° 0.1 mm 4 mps 738 mmHg 86%
    20:00 -3°C° 0.1 mm 4 mps 738 mmHg 88%
    21:00 -3°C° 0.1 mm 4 mps 739 mmHg 90%
    22:00 -3°C° 0 mm 4 mps 739 mmHg 90%
    23:00 -3°C° 0 mm 4 mps 739 mmHg 90%

    24 April, Tuesday

    Time Temperature Precipitation Wind Pressure Humidity
    00:00 -3°C° 0 mm 4 mps 740 mmHg 90%
    01:00 -4°C° 0 mm 4 mps 740 mmHg 89%
    02:00 -5°C° 0 mm 5 mps 740 mmHg 89%
    03:00 -5°C° 0 mm 5 mps 741 mmHg 88%
    04:00 -6°C° 0 mm 5 mps 741 mmHg 87%
    05:00 -6°C° 0 mm 5 mps 742 mmHg 86%
    06:00 -6°C° 0 mm 5 mps 742 mmHg 86%
    07:00 -6°C° 0 mm 5 mps 742 mmHg 82%
    08:00 -5°C° 0 mm 5 mps 743 mmHg 79%
    09:00 -4°C° 0 mm 6 mps 743 mmHg 76%
    10:00 -3°C° 0 mm 6 mps 744 mmHg 74%
    11:00 -2°C° 0 mm 6 mps 744 mmHg 72%
    12:00 -1°C° 0 mm 6 mps 744 mmHg 70%
    13:00 -1°C° 0 mm 6 mps 745 mmHg 69%
    14:00 0°C° 0 mm 5 mps 745 mmHg 69%
    15:00 0°C° 0 mm 5 mps 745 mmHg 69%
    16:00 0°C° 0 mm 4 mps 745 mmHg 71%
    17:00 -1°C° 0 mm 4 mps 746 mmHg 74%
    18:00 0°C° 0 mm 3 mps 746 mmHg 76%
    19:00 -1°C° 0 mm 3 mps 746 mmHg 78%
    20:00 -1°C° 0 mm 2 mps 746 mmHg 79%
    21:00 -1°C° 0 mm 2 mps 747 mmHg 81%
    22:00 -1°C° 0 mm 2 mps 747 mmHg 81%
    23:00 -2°C° 0 mm 2 mps 747 mmHg 80%

    25 April, Wednesday

    Time Temperature Precipitation Wind Pressure Humidity
    00:00 -2°C° 0 mm 2 mps 747 mmHg 79%
    01:00 0°C° 0 mm 1 mps 747 mmHg 80%
    02:00 0°C° 0 mm 1 mps 747 mmHg 80%
    03:00 -1°C° 0 mm 1 mps 747 mmHg 80%
    04:00 0°C° 0 mm 1 mps 748 mmHg 78%
    05:00 0°C° 0 mm 1 mps 748 mmHg 77%
    06:00 0°C° 0 mm 1 mps 748 mmHg 75%
    07:00 -1°C° 0 mm 2 mps 748 mmHg 69%
    08:00 +1°C° 0 mm 2 mps 748 mmHg 64%
    09:00 +2°C° 0 mm 3 mps 748 mmHg 58%
    10:00 +3°C° 0 mm 3 mps 747 mmHg 56%
    11:00 +4°C° 0 mm 3 mps 747 mmHg 53%
    12:00 +5°C° 0 mm 4 mps 747 mmHg 51%
    13:00 +6°C° 0 mm 4 mps 747 mmHg 50%
    14:00 +6°C° 0 mm 4 mps 746 mmHg 50%
    15:00 +7°C° 0 mm 4 mps 746 mmHg 49%
    16:00 +6°C° 0 mm 4 mps 746 mmHg 53%
    17:00 +6°C° 0 mm 4 mps 745 mmHg 56%
    18:00 +5°C° 0 mm 3 mps 745 mmHg 60%
    19:00 +4°C° 0 mm 4 mps 745 mmHg 63%
    20:00 +2°C° 0 mm 5 mps 744 mmHg 65%
    21:00 +1°C° 0 mm 5 mps 744 mmHg 67%
    22:00 +1°C° 0 mm 5 mps 744 mmHg 68%
    23:00 +1°C° 0 mm 6 mps 743 mmHg 69%
    Show more